Stations météo

réclame
Mon MeteoGroup
Edinburgh/Royal Botanic Garden , Grande-Bretagne (99180): Température de l'air & dewpoint: 24.03.2020 14:00:00 - 30.03.2020 14:00:00 (BST)Edinburgh/Royal Botanic Garden , Grande-Bretagne (99180): Température de l'air -20cm & Température de l'air -100cm: 24.03.2020 14:00:00 - 30.03.2020 14:00:00 (BST)Edinburgh/Royal Botanic Garden , Grande-Bretagne (99180): Quantités de précipitations: 24.03.2020 14:00:00 - 30.03.2020 14:00:00 (BST)
Date & Time tt [°C] td [°C] tt -20cm [°C] tt -100cm [°C] rr [mm]
30.03.2020 14:00:00 - - - - -
30.03.2020 13:00:00 10,1 2,3 - - 0,0
30.03.2020 12:00:00 10,4 2,6 - - 0,0
30.03.2020 11:00:00 10,3 2,9 - - 0,0
30.03.2020 10:00:00 8,6 2,5 7,0 6,9 0,0
30.03.2020 09:00:00 5,2 1,6 - - 0,0
30.03.2020 08:00:00 4,7 1,6 - - 0,0
30.03.2020 07:00:00 4,1 1,5 - - 0,0
30.03.2020 06:00:00 2,7 0,3 - - 0,0
30.03.2020 05:00:00 3,7 0,9 - - 0,0
30.03.2020 04:00:00 3,8 1,0 - - 0,0
30.03.2020 03:00:00 4,3 1,1 - - 0,0
30.03.2020 02:00:00 4,0 0,5 - - 0,0
30.03.2020 01:00:00 4,5 0,0 - - 0,0
30.03.2020 00:00:00 5,3 -0,2 - - 0,0
29.03.2020 23:00:00 5,8 -0,7 - - 0,0
29.03.2020 22:00:00 6,7 -1,2 - - 0,0
29.03.2020 21:00:00 7,1 -0,9 - - 0,0
29.03.2020 20:00:00 7,2 -1,9 - - 0,0
29.03.2020 19:00:00 7,7 -2,3 - - 0,0
29.03.2020 18:00:00 8,0 -3,1 - - 0,0
29.03.2020 17:00:00 8,4 -4,3 - - 0,0
29.03.2020 16:00:00 7,2 -4,9 - - 0,0
29.03.2020 15:00:00 6,7 -5,2 - - 0,0
29.03.2020 14:00:00 6,0 -5,5 - - 0,0
29.03.2020 13:00:00 6,5 -4,8 - - 0,0
29.03.2020 12:00:00 4,9 -5,8 - - 0,0
29.03.2020 11:00:00 4,2 -5,5 - - 0,0
29.03.2020 10:00:00 4,0 -4,8 6,9 6,9 0,0
29.03.2020 09:00:00 3,2 -4,4 - - 0,0
29.03.2020 08:00:00 3,2 -4,0 - - 0,0
29.03.2020 07:00:00 3,0 -3,5 - - 0,0
29.03.2020 06:00:00 3,1 -2,8 - - 0,0
29.03.2020 05:00:00 3,2 -2,9 - - 0,0
29.03.2020 04:00:00 3,3 -2,8 - - 0,0
29.03.2020 03:00:00 3,4 -2,8 - - 0,0
29.03.2020 02:00:00 3,6 -3,0 - - 0,0
29.03.2020 01:00:00 3,7 -3,7 - - 0,0
29.03.2020 00:00:00 3,8 -4,1 - - 0,0
28.03.2020 23:00:00 3,8 -3,4 - - 0,0
28.03.2020 22:00:00 3,5 -2,6 - - 0,0
28.03.2020 21:00:00 4,2 -1,6 - - 0,0
28.03.2020 20:00:00 3,7 -0,5 - - 0,2
28.03.2020 19:00:00 5,5 -0,2 - - 0,0
28.03.2020 18:00:00 5,3 0,3 - - 0,0
28.03.2020 17:00:00 6,0 -0,6 - - 0,0
28.03.2020 16:00:00 6,3 -1,4 - - 0,0
28.03.2020 15:00:00 6,1 0,6 - - 0,0
28.03.2020 14:00:00 6,7 -1,2 - - 0,0
28.03.2020 13:00:00 7,0 0,6 - - 0,0
28.03.2020 12:00:00 6,8 0,3 - - 0,0
28.03.2020 11:00:00 8,7 1,7 - - 0,0
28.03.2020 10:00:00 7,7 2,2 7,2 6,7 0,0
28.03.2020 09:00:00 5,8 2,7 - - 0,0
28.03.2020 08:00:00 5,3 2,8 - - 0,0
28.03.2020 07:00:00 4,6 4,3 - - 0,0
28.03.2020 06:00:00 3,4 3,0 - - 0,0
28.03.2020 05:00:00 3,3 2,9 - - 0,0
28.03.2020 04:00:00 3,0 2,6 - - 0,0
28.03.2020 03:00:00 3,4 3,0 - - 0,0
28.03.2020 02:00:00 2,5 2,0 - - 0,0
28.03.2020 01:00:00 2,3 1,6 - - 0,0
28.03.2020 00:00:00 3,5 2,4 - - 0,0
27.03.2020 23:00:00 6,1 4,7 - - 0,0
27.03.2020 22:00:00 6,4 4,9 - - 0,0
27.03.2020 21:00:00 6,5 5,0 - - 0,0
27.03.2020 20:00:00 6,6 4,8 - - 0,0
27.03.2020 19:00:00 6,7 4,7 - - 0,0
27.03.2020 18:00:00 6,7 5,0 - - 0,0
27.03.2020 17:00:00 6,2 5,6 - - 0,0
27.03.2020 16:00:00 5,7 5,4 - - 0,0
27.03.2020 15:00:00 5,9 5,7 - - 0,2
27.03.2020 14:00:00 6,1 5,8 - - 0,2
27.03.2020 13:00:00 6,2 6,0 - - 0,0
27.03.2020 12:00:00 6,3 6,2 - - 0,2
27.03.2020 11:00:00 6,4 6,2 - - 0,2
27.03.2020 10:00:00 6,4 6,3 7,5 6,7 0,4
27.03.2020 09:00:00 6,6 6,5 - - 0,4
27.03.2020 08:00:00 6,5 6,4 - - 0,0
27.03.2020 07:00:00 6,5 6,3 - - 0,0
27.03.2020 06:00:00 6,5 6,4 - - 0,0
27.03.2020 05:00:00 6,6 6,4 - - 0,0
27.03.2020 04:00:00 6,6 6,4 - - 0,2
27.03.2020 03:00:00 6,6 6,4 - - 0,8
27.03.2020 02:00:00 6,6 6,4 - - 0,0
27.03.2020 01:00:00 6,6 6,4 - - 0,0
27.03.2020 00:00:00 6,6 6,3 - - 0,0
26.03.2020 23:00:00 6,6 6,3 - - 0,0
26.03.2020 22:00:00 6,5 6,3 - - 0,0
26.03.2020 21:00:00 6,5 6,3 - - 0,0
26.03.2020 20:00:00 6,5 6,3 - - 0,0
26.03.2020 19:00:00 6,7 6,3 - - 0,0
26.03.2020 18:00:00 6,7 6,3 - - 0,0
26.03.2020 17:00:00 6,7 6,3 - - 0,0
26.03.2020 16:00:00 6,7 6,2 - - 0,0
26.03.2020 15:00:00 6,9 6,3 - - 0,0
26.03.2020 14:00:00 6,7 6,0 - - 0,0
26.03.2020 13:00:00 6,8 6,0 - - 0,0
26.03.2020 12:00:00 6,6 6,1 - - 0,0
26.03.2020 11:00:00 6,6 6,2 - - 0,0
26.03.2020 10:00:00 6,6 6,2 7,4 6,5 0,2
26.03.2020 09:00:00 6,6 6,1 - - 0,6
26.03.2020 08:00:00 6,6 6,2 - - 0,0
26.03.2020 07:00:00 6,7 6,2 - - 0,2
26.03.2020 06:00:00 6,8 6,3 - - 0,4
26.03.2020 05:00:00 6,9 6,3 - - 1,2
26.03.2020 04:00:00 9,2 8,4 - - 0,2
26.03.2020 03:00:00 9,2 8,3 - - 0,2
26.03.2020 02:00:00 9,4 8,2 - - 0,0
26.03.2020 01:00:00 9,5 8,1 - - 0,0
26.03.2020 00:00:00 9,9 8,2 - - 0,0
25.03.2020 23:00:00 9,9 8,2 - - 0,0
25.03.2020 22:00:00 10,3 8,2 - - 0,0
25.03.2020 21:00:00 10,4 8,1 - - 0,0
25.03.2020 20:00:00 11,0 8,1 - - 0,0
25.03.2020 19:00:00 11,2 7,8 - - 0,0
25.03.2020 18:00:00 12,3 8,0 - - 0,0
25.03.2020 17:00:00 13,2 7,9 - - 0,0
25.03.2020 16:00:00 13,6 7,8 - - 0,0
25.03.2020 15:00:00 13,3 7,2 - - 0,0
25.03.2020 14:00:00 13,4 7,3 - - 0,0
25.03.2020 13:00:00 12,4 6,9 - - 0,0
25.03.2020 12:00:00 11,1 5,6 - - 0,0
25.03.2020 11:00:00 10,5 5,9 - - 0,0
25.03.2020 10:00:00 10,2 5,6 6,7 6,4 0,0
25.03.2020 09:00:00 9,3 5,3 - - 0,0
25.03.2020 08:00:00 9,0 5,3 - - 0,0
25.03.2020 07:00:00 9,4 5,1 - - 0,0
25.03.2020 06:00:00 9,7 5,0 - - 0,0
25.03.2020 05:00:00 9,7 4,7 - - 0,0
25.03.2020 04:00:00 9,5 4,3 - - 0,0
25.03.2020 03:00:00 9,0 4,0 - - 0,0
25.03.2020 02:00:00 9,0 3,7 - - 0,0
25.03.2020 01:00:00 9,8 3,9 - - 0,0
25.03.2020 00:00:00 9,9 4,2 - - 0,0
24.03.2020 23:00:00 9,1 3,5 - - 0,0
24.03.2020 22:00:00 9,9 4,0 - - 0,0
24.03.2020 21:00:00 10,7 5,2 - - 0,0
24.03.2020 20:00:00 11,3 6,3 - - 0,0
24.03.2020 19:00:00 12,2 6,4 - - 0,0
24.03.2020 18:00:00 13,3 5,4 - - 0,0
24.03.2020 17:00:00 13,3 5,2 - - 0,0
24.03.2020 16:00:00 12,9 5,6 - - 0,0
24.03.2020 15:00:00 12,7 4,8 - - 0,0
24.03.2020 14:00:00 - - - - -

tt = Température de l'air
td = dewpoint
tt -20cm = Température de l'air -20cm
tt -100cm = Température de l'air -100cm
rr = Quantités de précipitations

stations d'obs. à proximité